Location: Brno
(49.2000°N, 16.6330°E)
Time: 15:16:18
(UTC+02:00)

Meteor 1-4 Rocket - Visible Passes

Search period start: 28 June 2016 00:00
Search period end: 08 July 2016 00:00
Orbit: 457 x 512 km, 81.2° (Epoch: 27 June)

Date Brightness Start Highest point End Pass type
(mag) Time Alt. Az. Time Alt. Az. Time Alt. Az.
28 Jun 2.7 22:20:47 10° NNW 22:24:35 81° W 22:27:58 12° S visible
29 Jun 2.7 21:56:04 10° N 21:59:50 65° ENE 22:03:30 10° SSE visible
29 Jun 5.4 23:33:20 10° WNW 23:34:27 11° W 23:35:34 10° WSW visible
30 Jun 5.1 23:07:31 10° NW 23:09:54 16° W 23:12:16 10° SW visible
01 Jul 4.6 22:42:16 10° NW 22:45:19 24° W 22:48:18 10° SW visible
02 Jul 4.0 22:17:14 10° NNW 22:20:41 35° W 22:24:03 10° SSW visible
03 Jul 3.3 21:52:20 10° NNW 21:56:01 54° W 21:59:35 10° S visible
05 Jul 5.5 22:39:58 10° WNW 22:41:11 11° W 22:42:23 10° WSW visible
06 Jul 5.3 22:14:13 10° NW 22:16:37 17° W 22:18:59 10° SW visible
07 Jul 4.8 21:48:59 10° NW 21:52:01 24° W 21:54:59 10° SSW visible
